This is the latest recevied weather packets stored in our database for station/object K7SKM. If no packets are shown the sender has not sent any weather packets the latest 10 day(s).
| Time | Temp. | Humidity | Pressure | Rain* | Wind** | Luminosity | Snow |
|---|---|---|---|---|---|---|---|
| 1787615371 | 28.89° C | 43% | 1018.1 hPa | 0 mm | - | 186 W/m² | - |
| 1787615067 | 28.89° C | 42% | 1018 hPa | 0 mm | - | 115 W/m² | - |
| 1787614764 | 28.89° C | 42% | 1017.9 hPa | 0 mm | - | 321 W/m² | - |
| 1787614460 | 27.78° C | 44% | 1018.1 hPa | 0 mm | - | 102 W/m² | - |
| 1787614157 | 28.33° C | 43% | 1017.9 hPa | 0 mm | - | 108 W/m² | - |
| 1787613853 | 28.89° C | 43% | 1018 hPa | 0 mm | - | 334 W/m² | - |
| 1787613548 | 28.33° C | 44% | 1018 hPa | 0 mm | - | 334 W/m² | - |
| 1787613243 | 27.78° C | 45% | 1018.3 hPa | 0 mm | - | 339 W/m² | - |
| 1787612940 | 27.78° C | 45% | 1018.3 hPa | 0 mm | - | 115 W/m² | - |
| 1787612636 | 27.78° C | 45% | 1018.4 hPa | 0 mm | - | 251 W/m² | - |
| 1787612332 | 27.78° C | 45% | 1018.4 hPa | 0 mm | - | 116 W/m² | - |
| 1787612028 | 27.78° C | 45% | 1018.3 hPa | 0 mm | - | 83 W/m² | - |
| 1787611724 | 27.22° C | 45% | 1018.7 hPa | 0 mm | - | 72 W/m² | - |
| 1787611420 | 27.78° C | 45% | 1018.8 hPa | 0 mm | - | 286 W/m² | - |
| 1787611120 | 27.78° C | 46% | 1018.7 hPa | 0 mm | - | 334 W/m² | - |
| 1787610816 | 27.22° C | 46% | 1018.7 hPa | 0 mm | - | 317 W/m² | - |
| 1787610512 | 27.78° C | 46% | 1019.1 hPa | 0 mm | - | 65 W/m² | - |
| 1787610210 | 27.22° C | 47% | 1019 hPa | 0 mm | - | 61 W/m² | - |
| 1787609910 | 27.78° C | 46% | 1019.1 hPa | 0 mm | - | 62 W/m² | - |
| 1787609609 | 27.78° C | 46% | 1019.2 hPa | 0 mm | - | 62 W/m² | - |
| 1787609304 | 26.67° C | 48% | 1019.3 hPa | 0 mm | - | 61 W/m² | - |
| 1787609004 | 27.22° C | 47% | 1019.3 hPa | 0 mm | - | 66 W/m² | - |
| 1787608699 | 26.67° C | 48% | 1019.5 hPa | 0 mm | - | 89 W/m² | - |
| 1787608398 | 27.22° C | 47% | 1019.4 hPa | 0 mm | - | 108 W/m² | - |
| 1787608095 | 27.78° C | 46% | 1019.1 hPa | 0 mm | - | 74 W/m² | - |
* Rain latest hour (hover to see other rain measurements)
** Current wind speed in m/s (hover to see current wind gust speed)